STARLINK-34652

Last updated on Fri Aug 08 2025 00:02:05 GMT+0000 (Coordinated Universal Time)

1 64772U 25147T 25218.91668981 .00011182 00000+0 28916-3 0 9992 2 64772 53.1603 163.3158 0001244 102.9759 28.6543 15.39614624 5933
UTC large
Height (km)
Speed (km/s)
/
Latitude / Longitude
Inclination (degrees)
Orbital Period (minutes)
Azimuth
Elevation
Range (km)
Doppler Factor

Next 0 passes for location: London (51.5072 / 0.1276)

Sorry there are no passes over London.